[[{"header":{"parameterUnit":"m.s-1","parameterCategory":1,"la1":30.2992,"la2":30.254,"lo1":-89.0895,"lo2":-89.0443,"dy":0.0025,"dx":0.0025,"nx":19,"ny":19,"refTime":"2026-05-17T09:00:00:Z","depth":0,"parameterNumber":2,"parameterNumberName":"U-component_of_WINDS"},"data":[0,0,0,-5.3049,-5.3051,-5.3119,-5.3119,-5.3222,-5.3223,0,0,0,0,0,0,0,0,0,0,0,-5.3039,-5.304,-5.3049,-5.3051,-5.3119,-5.3119,-5.3221,-5.3223,0,0,0,0,0,0,0,0,0,0,0,-5.3039,-5.304,-5.3041,-5.3051,-5.3119,-5.3119,-5.3221,-5.3164,0,0,0,0,0,0,0,0,0,0,-5.3095,-5.3096,-5.304,-5.3041,-5.3052,-5.3119,-5.3119,-5.3161,-5.3168,-5.3198,0,-5.3228,0,-5.3227,-5.3231,-5.3231,0,0,0,-5.3043,-5.3091,-5.31,-5.3042,-5.3053,-5.3119,-5.3086,-5.3165,-5.3172,-5.3207,-5.3229,-5.3233,-5.3229,-5.3231,-5.3232,-5.3434,-5.3435,0,0,-5.3039,-5.3056,-5.3095,-5.3106,-5.3097,-5.3084,-5.3088,-5.3169,-5.3194,-5.323,-5.3235,-5.3231,-5.3232,-5.3233,-5.3433,-5.3434,0,0,0,-5.3034,-5.3054,-5.3061,-5.3102,-5.3113,-5.3086,-5.3091,-5.3191,-5.3192,-5.3236,-5.3232,-5.3233,-5.3234,-5.3431,-5.3433,-5.3514,0,0,0,-5.3031,-5.3051,-5.306,-5.3071,-5.3112,-5.3153,-5.3111,-5.3186,-5.3195,-5.3231,-5.3233,-5.3236,-5.343,-5.3432,-5.3508,-5.3548,0,0,0,-5.3031,-5.3051,-5.3064,-5.3072,-5.3102,-5.3151,-5.3156,-5.3187,-5.3193,-5.3231,-5.3236,-5.3429,-5.3432,-5.3504,-5.354,-5.3605,0,0,0,-5.3036,-5.3134,-5.3066,-5.3175,-5.3102,-5.3202,-5.3156,-5.3229,-5.3272,-5.3234,-5.343,-5.3433,-5.3502,-5.3535,-5.36,-5.3661,-5.3688,0,0,-5.317,-5.3151,-5.3214,-5.3155,-5.3271,-5.319,-5.3318,-5.334,-5.3328,-5.3399,-5.3404,-5.351,-5.3539,-5.3604,-5.3842,-5.3864,0,0,0,-5.3262,-5.3307,-5.3335,-5.3377,-5.3398,-5.3419,-5.342,-5.3429,-5.3489,-5.3369,-5.3552,-5.3569,-5.3606,-5.3634,-5.3653,-5.3683,-5.3448,-5.3447,-5.3447,-5.3473,-5.3454,-5.3557,-5.3546,-5.3588,-5.359,-5.3622,-5.3634,-5.3601,-5.3645,-5.3665,-5.3812,-5.3846,-5.386,-5.3891,-5.3698,-5.3698,-5.3699,-5.3699,-5.3666,-5.3726,-5.3683,-5.3766,-5.3746,-5.3816,-5.3823,-5.3798,-5.3859,-5.3795,-5.3827,-5.3756,-5.3885,-5.3911,-5.3705,-5.3704,-5.3703,-5.3702,-5.3702,-5.3799,-5.3825,-5.3836,-5.3895,-5.3944,-5.3931,-5.3992,-5.3972,-5.3952,-5.3984,-5.4002,-5.4,-5.3994,-5.3995,-5.3995,-5.3996,-5.3996,-5.3997,-5.3997,-5.3933,-5.3942,-5.3997,-5.403,-5.4054,-5.4085,-5.409,-5.4114,-5.4135,-5.4114,-5.4115,-5.4077,-5.3902,-5.3857,-5.4005,-5.4003,-5.4002,-5.4002,-5.4001,-5.413,-5.4083,-5.4167,-5.4192,-5.4229,-5.4279,-5.4253,-5.4304,-5.4321,-5.4352,-5.4309,-5.4184,-5.4163,-5.4148,-5.411,-5.4314,-5.4314,-5.4314,-5.4314,-5.4241,-5.4229,-5.4311,-5.4353,-5.4392,-5.4378,-5.4474,-5.448,-5.4478,-5.4487,-5.4456,-5.4405,-5.4391,-5.4378,-5.4358,-5.4322,-5.4576,-5.4576,-5.4576,-5.436,-5.4352,-5.4436,-5.4436,-5.4464,-5.4488,-5.4577,-5.4627,-5.4615,-5.4586,-5.4494,-5.4483,-5.4401,-5.4376,-5.4341,-5.431,-5.4244,0,0]},{"header":{"parameterUnit":"m.s-1","parameterCategory":1,"la1":30.2992,"la2":30.254,"lo1":-89.0895,"lo2":-89.0443,"dy":0.0025,"dx":0.0025,"nx":19,"ny":19,"refTime":"2026-05-17T09:00:00:Z","depth":0,"parameterNumber":3,"parameterNumberName":"V-component_of_WINDS"},"data":[0,0,0,4.5419,4.542,4.5473,4.5473,4.5528,4.5528,0,0,0,0,0,0,0,0,0,0,0,4.5398,4.5398,4.5419,4.5421,4.5473,4.5473,4.5528,4.5528,0,0,0,0,0,0,0,0,0,0,0,4.5398,4.5398,4.5398,4.5421,4.5473,4.5473,4.5528,4.5492,0,0,0,0,0,0,0,0,0,0,4.5443,4.5418,4.5398,4.5398,4.5421,4.5473,4.5473,4.5491,4.5494,4.55,0,4.5504,0,4.5517,4.5531,4.5532,0,0,0,4.5424,4.5415,4.5435,4.5399,4.5421,4.5472,4.545,4.5493,4.5497,4.5505,4.5505,4.5507,4.5518,4.5532,4.5532,4.5554,4.5554,0,0,4.5421,4.5404,4.5432,4.5437,4.543,4.5449,4.5452,4.5496,4.5494,4.5505,4.5509,4.5519,4.5532,4.5532,4.5555,4.5554,0,0,0,4.5411,4.5401,4.5421,4.5435,4.5445,4.545,4.5454,4.5492,4.55,4.5509,4.552,4.5532,4.5533,4.5555,4.5555,4.5535,0,0,0,4.5409,4.5395,4.5419,4.5408,4.5444,4.5469,4.5449,4.5497,4.5502,4.5519,4.5532,4.5533,4.5555,4.5555,4.5536,4.5528,0,0,0,4.5397,4.5394,4.54,4.5407,4.543,4.5469,4.548,4.5499,4.5508,4.5532,4.5533,4.5555,4.5555,4.5536,4.5529,4.553,0,0,0,4.5378,4.5379,4.5399,4.5405,4.5429,4.5457,4.548,4.5501,4.5518,4.5533,4.5555,4.5555,4.5536,4.553,4.553,4.5527,4.5524,0,0,4.537,4.5378,4.5383,4.5402,4.5422,4.5451,4.5468,4.5499,4.5517,4.5541,4.5541,4.5535,4.5529,4.553,4.5514,4.5511,0,0,0,4.5374,4.5378,4.5387,4.5404,4.543,4.5452,4.5483,4.5495,4.5517,4.5526,4.5536,4.5533,4.5534,4.5533,4.5531,4.5533,4.5553,4.5553,4.5554,4.5336,4.5361,4.5371,4.5403,4.5419,4.5453,4.5469,4.549,4.5508,4.551,4.5517,4.5505,4.5503,4.5502,4.5504,4.5518,4.5518,4.5518,4.5518,4.5327,4.5336,4.5363,4.5383,4.5409,4.5425,4.5459,4.5471,4.549,4.5501,4.5503,4.5513,4.5499,4.5502,4.5516,4.5516,4.5517,4.5517,4.5517,4.5304,4.5313,4.533,4.536,4.5379,4.5411,4.5429,4.5451,4.5471,4.5474,4.5484,4.5485,4.5488,4.5477,4.5477,4.5477,4.5477,4.5477,4.5477,4.5275,4.5294,4.5308,4.5338,4.5353,4.5376,4.5412,4.5427,4.5449,4.5464,4.5464,4.5482,4.5493,4.5495,4.5477,4.5477,4.5477,4.5477,4.5477,4.5256,4.5265,4.5285,4.5301,4.5339,4.5358,4.5387,4.5417,4.5432,4.544,4.5459,4.5463,4.5472,4.5474,4.5476,4.5454,4.5454,4.5454,4.5454,4.5237,4.5245,4.5272,4.5296,4.5322,4.5352,4.5374,4.5402,4.5433,4.5444,4.5451,4.5455,4.5456,4.5465,4.5467,4.5469,4.5445,4.5445,4.5445,4.5227,4.5239,4.5254,4.5287,4.5319,4.5346,4.5368,4.5393,4.5429,4.5445,4.5453,4.5454,4.5462,4.5463,4.5478,4.5481,4.5485,0,0]}]]